Mackinac Island, MI

8:17 PM EST on November 24, 2017 (GMT -0500)
Mackinac Island

Weather History for KMCD - November, 2011

Change the Weather History Date:

Sunday, November 13, 2011

  Actual Average Record
Temperature  
Mean Temperature 50 °F -  
Max Temperature 55 °F 40 °F 60 °F (1999)
Min Temperature 46 °F 31 °F 10 °F (1986)
Degree Days  
Heating Degree Days 14    
Moisture  
Dew Point 43 °F    
Average Humidity 77    
Maximum Humidity 94    
Minimum Humidity 66    
Precipitation  
Precipitation 0.10 in - - ()
Sea Level Pressure  
Sea Level Pressure 29.35 in    
Wind  
Wind Speed 5 mph (South)    
Max Wind Speed 8 mph    
Max Gust Speed 16 mph    
Visibility 10 miles    
Events Rain    
Averages and records for this station are not official NWS values.
T = Trace of Precipitation, MM = Missing Value Source: NWS Daily Summary

Daily Weather History Graph

Daily Weather History Graph

Search for Another Location

Airport or City:

Trip Planner

Search our weather history database for the weather conditions in past years. The results will help you decide how hot, cold, wet, or windy it might be!

Date:

Astronomy

Nov. 13, 2011 Rise Set
Actual Time 7:35 AM EST 5:09 PM EST
Civil Twilight 7:03 AM EST 5:41 PM EST
Nautical Twilight 6:27 AM EST 6:17 PM EST
Astronomical Twilight 5:52 AM EST 6:52 PM EST
Moon 7:11 PM EST (11/13) 10:13 AM EST (11/13)
Length of Visible Light 10h 38m
Length of Day
9h 34m
Waning Gibbous, 93% of the Moon is Illuminated
Nov 13
Waning Gibbous
Nov 18
Last Quarter
Nov 25
New
Dec 2
First Quarter
Dec 10
Full

Hourly Weather History & Observations

Time (EST) Temp. Windchill Dew Point Humidity Pressure Visibility Wind Dir Wind Speed Gust Speed Precip Events Conditions
12:13 AM 46.4 °F 43.5 °F 37.4 °F 71% 29.55 in 10.0 mi South 5.8 mph - N/A   Clear
12:33 AM 46.4 °F 43.5 °F 37.4 °F 71% 29.54 in 10.0 mi South 5.8 mph - N/A   Clear
12:54 AM 46.4 °F 45.2 °F 37.4 °F 71% 29.52 in 10.0 mi South 3.5 mph - N/A   Clear
1:33 AM 46.4 °F 44.3 °F 37.4 °F 71% 29.50 in 10.0 mi South 4.6 mph - N/A   Clear
1:54 AM 46.4 °F - 37.4 °F 71% 29.50 in 10.0 mi Calm Calm - N/A   Clear
2:13 AM 46.4 °F 44.3 °F 37.4 °F 71% 29.49 in 10.0 mi South 4.6 mph - N/A   Clear
2:34 AM 46.4 °F 45.2 °F 37.4 °F 71% 29.49 in 10.0 mi South 3.5 mph - N/A   Clear
3:13 AM 48.2 °F - 37.4 °F 66% 29.47 in 10.0 mi SSW 5.8 mph - N/A   Clear
3:34 AM 48.2 °F - 37.4 °F 66% 29.46 in 10.0 mi South 4.6 mph - N/A   Clear
3:54 AM 48.2 °F - 37.4 °F 66% 29.45 in 10.0 mi South 4.6 mph - N/A   Clear
4:13 AM 48.2 °F - 37.4 °F 66% 29.44 in 10.0 mi South 4.6 mph - N/A   Clear
4:34 AM 46.4 °F 44.3 °F 39.2 °F 76% 29.44 in 10.0 mi SSE 4.6 mph - N/A   Clear
4:54 AM 46.4 °F 45.2 °F 39.2 °F 76% 29.43 in 10.0 mi South 3.5 mph - N/A   Clear
5:13 AM 46.4 °F 43.5 °F 39.2 °F 76% 29.43 in 10.0 mi South 5.8 mph - N/A   Mostly Cloudy
5:34 AM 46.4 °F 43.5 °F 39.2 °F 76% 29.42 in 10.0 mi SSE 5.8 mph - N/A   Overcast
5:54 AM 46.4 °F 42.9 °F 39.2 °F 76% 29.41 in 10.0 mi South 6.9 mph - N/A   Overcast
6:13 AM 46.4 °F 43.5 °F 41.0 °F 81% 29.40 in 10.0 mi South 5.8 mph - N/A   Overcast
6:34 AM 46.4 °F 42.9 °F 39.2 °F 76% 29.40 in 10.0 mi South 6.9 mph - N/A   Scattered Clouds
6:54 AM 46.4 °F 42.9 °F 41.0 °F 81% 29.40 in 10.0 mi South 6.9 mph - N/A   Scattered Clouds
7:13 AM 46.4 °F 42.9 °F 39.2 °F 76% 29.39 in 10.0 mi South 6.9 mph 16.1 mph N/A   Scattered Clouds
7:34 AM 46.4 °F 42.4 °F 41.0 °F 81% 29.38 in 10.0 mi South 8.1 mph - N/A   Overcast
7:54 AM 46.4 °F 42.4 °F 41.0 °F 81% 29.38 in 10.0 mi South 8.1 mph 16.1 mph N/A   Overcast
8:13 AM 46.4 °F 43.5 °F 41.0 °F 81% 29.38 in 10.0 mi South 5.8 mph - N/A   Overcast
8:34 AM 48.2 °F - 41.0 °F 76% 29.37 in 10.0 mi South 6.9 mph - N/A   Overcast
8:54 AM 48.2 °F - 41.0 °F 76% 29.37 in 10.0 mi South 6.9 mph - N/A   Overcast
9:34 AM 50.0 °F - 42.8 °F 76% 29.35 in 10.0 mi SSE 8.1 mph - N/A   Overcast
9:54 AM 50.0 °F - 42.8 °F 76% 29.35 in 10.0 mi SSE 6.9 mph - N/A   Overcast
10:13 AM 50.0 °F - 42.8 °F 76% 29.35 in 10.0 mi South 3.5 mph - N/A   Overcast
10:34 AM 50.0 °F - 42.8 °F 76% 29.35 in 10.0 mi South 5.8 mph - N/A   Overcast
10:54 AM 51.8 °F - 42.8 °F 71% 29.34 in 10.0 mi SSW 5.8 mph - N/A   Overcast
11:13 AM 51.8 °F - 44.6 °F 76% 29.34 in 10.0 mi South 4.6 mph - N/A   Overcast
11:34 AM 51.8 °F - 44.6 °F 76% 29.33 in 10.0 mi South 3.5 mph - N/A   Overcast
11:53 AM 51.8 °F - 44.6 °F 76% 29.33 in 10.0 mi SSW 6.9 mph - N/A   Overcast
12:14 PM 53.6 °F - 44.6 °F 72% 29.33 in 10.0 mi South 4.6 mph - N/A   Overcast
12:34 PM 53.6 °F - 44.6 °F 72% 29.32 in 10.0 mi South 3.5 mph - N/A   Overcast
12:53 PM 53.6 °F - 44.6 °F 72% 29.32 in 10.0 mi SSW 3.5 mph - N/A   Overcast
1:14 PM 53.6 °F - 44.6 °F 72% 29.32 in 10.0 mi SW 8.1 mph - N/A   Overcast
1:34 PM 53.6 °F - 44.6 °F 72% 29.32 in 10.0 mi SW 6.9 mph - N/A   Overcast
1:53 PM 55.4 °F - 46.4 °F 72% 29.31 in 10.0 mi Calm Calm - N/A   Overcast
2:14 PM 53.6 °F - 46.4 °F 77% 29.31 in 10.0 mi SW 5.8 mph - N/A   Overcast
2:34 PM 55.4 °F - 46.4 °F 72% 29.30 in 10.0 mi SW 5.8 mph - N/A   Overcast
2:53 PM 55.4 °F - 46.4 °F 72% 29.30 in 10.0 mi SSW 4.6 mph - N/A   Overcast
3:14 PM 55.4 °F - 46.4 °F 72% 29.29 in 10.0 mi SSW 4.6 mph - N/A   Overcast
3:34 PM 55.4 °F - 46.4 °F 72% 29.28 in 10.0 mi SSW 3.5 mph - N/A   Overcast
3:53 PM 55.4 °F - 46.4 °F 72% 29.27 in 10.0 mi Calm Calm - N/A   Overcast
4:14 PM 55.4 °F - 46.4 °F 72% 29.27 in 10.0 mi Calm Calm - N/A Rain Light Rain
4:34 PM 53.6 °F - 46.4 °F 77% 29.25 in 10.0 mi Calm Calm - N/A Rain Light Rain
4:53 PM 51.8 °F - 46.4 °F 82% 29.24 in 10.0 mi Calm Calm - N/A Rain Light Rain
5:14 PM 51.8 °F - 50.0 °F 94% 29.23 in 5.0 mi ESE 3.5 mph - 0.01 in Rain Heavy Rain
5:34 PM 51.8 °F - 50.0 °F 94% 29.23 in 7.0 mi Calm Calm - 0.02 in Rain Rain
5:53 PM 51.8 °F - 50.0 °F 94% 29.23 in 10.0 mi South 5.8 mph - 0.04 in   Overcast
5:59 PM 51.8 °F - 50.0 °F 94% 29.23 in 10.0 mi South 4.6 mph - 0.04 in   Overcast
6:14 PM 51.8 °F - 50.0 °F 94% 29.23 in 10.0 mi South 4.6 mph - 0.02 in   Overcast
6:33 PM 51.8 °F - 50.0 °F 94% 29.22 in 10.0 mi South 5.8 mph - 0.03 in   Mostly Cloudy
6:53 PM 51.8 °F - 50.0 °F 94% 29.22 in 10.0 mi South 3.5 mph - 0.04 in   Mostly Cloudy
6:59 PM 51.8 °F - 50.0 °F 94% 29.22 in 10.0 mi South 4.6 mph - 0.05 in   Overcast
7:14 PM 51.8 °F - 50.0 °F 94% 29.23 in 10.0 mi South 4.6 mph - 0.01 in   Overcast
7:33 PM 51.8 °F - 50.0 °F 94% 29.23 in 7.0 mi SSW 6.9 mph - 0.02 in Rain Heavy Rain
7:53 PM 51.8 °F - 50.0 °F 94% 29.23 in 7.0 mi SW 4.6 mph - 0.03 in Rain Rain
7:59 PM 51.8 °F - 50.0 °F 94% 29.23 in 7.0 mi SSW 4.6 mph - 0.03 in Rain Light Rain
8:14 PM 51.8 °F - 50.0 °F 94% 29.24 in 10.0 mi WSW 5.8 mph - 0.01 in Rain Light Rain
8:33 PM 50.0 °F - 48.2 °F 94% 29.24 in 7.0 mi WSW 8.1 mph - 0.03 in   Overcast
8:54 PM 48.2 °F - 46.4 °F 93% 29.25 in 7.0 mi WSW 8.1 mph - 0.04 in   Overcast
8:59 PM 48.2 °F - 46.4 °F 93% 29.24 in 7.0 mi WSW 4.6 mph 18.4 mph 0.04 in   Overcast
9:14 PM 46.4 °F 42.9 °F 46.4 °F 100% 29.25 in 5.0 mi WSW 6.9 mph - 0.01 in   Overcast
9:33 PM 46.4 °F 42.4 °F 46.4 °F 100% 29.27 in 4.0 mi WSW 8.1 mph - 0.02 in   Overcast
9:54 PM 46.4 °F 42.4 °F 46.4 °F 100% 29.28 in 4.0 mi WSW 8.1 mph - 0.04 in   Overcast
9:59 PM 46.4 °F 42.4 °F 46.4 °F 100% 29.29 in 3.0 mi West 8.1 mph - 0.04 in   Overcast
10:14 PM 46.4 °F 43.5 °F 46.4 °F 100% 29.29 in 1.0 mi WSW 5.8 mph - 0.01 in   Overcast
10:33 PM 46.4 °F 42.9 °F 46.4 °F 100% 29.30 in 0.2 mi West 6.9 mph - 0.02 in Fog Fog
10:54 PM 46.4 °F 44.3 °F 46.4 °F 100% 29.31 in 0.2 mi West 4.6 mph - 0.03 in Fog Fog
10:59 PM 46.4 °F 43.5 °F 44.6 °F 93% 29.31 in 0.2 mi WSW 5.8 mph - 0.03 in Fog Fog
11:14 PM 46.4 °F 44.3 °F 44.6 °F 93% 29.31 in 0.2 mi WSW 4.6 mph - 0.01 in Fog Fog
11:33 PM 46.4 °F 42.4 °F 46.4 °F 100% 29.33 in 0.5 mi West 8.1 mph - 0.02 in Fog Fog
11:54 PM 46.4 °F 42.9 °F 46.4 °F 100% 29.35 in 1.5 mi WSW 6.9 mph - 0.02 in   Overcast
11:59 PM 46.4 °F 42.9 °F 46.4 °F 100% 29.35 in 1.8 mi WSW 6.9 mph - 0.03 in   Overcast